Regional Weather Roundup
Issued by NWS Grand Forks, ND

Home | Current Version | Previous Version | Graphics & Text | Print | Product List | Glossary On
Versions: 1 2 3 4 5 6 7 8 9 10 11 12 13 14 15 16 17 18 19 20 21 22 23 24 25 26 27 28 29 30 31 32 33 34 35 36 37 38 39 40 41 42 43 44 45 46 47 48 49 50
000
ASUS43 KFGF 040531
RWRFGF
PRAIRIE TO PINES  WEATHER ROUNDUP
NATIONAL WEATHER SERVICE EASTERN NORTH DAKOTA/GRAND FORKS ND
1200 AM CDT TUE AUG 04 2015

 **SATELLITE DATA USED TO AUGMENT SKY COVER AT AUTOMATED STATIONS**
 *****  WEATHER ACROSS EASTERN NORTH DAKOTA  *****

CITY           SKY/WX    TMP DP  RH WIND       PRES   REMARKS
GRAND FORKS    CLEAR     55  50  83 CALM      29.92S
GRAND FRKS AFB CLEAR     57  49  73 NW3       29.93R
GRAND FRKS NWS   N/A     59 N/A N/A MISG        N/A
DEVILS LAKE    CLEAR     61  50  67 W3        29.96S
FARGO          CLEAR     56  49  77 CALM      29.95R
WAHPETON ARPT  CLEAR     54  46  76 CALM      29.96S
$$

 ***** WEATHER ACROSS CENTRAL AND WESTERN NORTH DAKOTA  *****

CITY           SKY/WX    TMP DP  RH WIND       PRES   REMARKS
BISMARCK       CLEAR     62  51  67 NE3       29.98S
MINOT          CLEAR     64  50  60 S5        29.97S
JAMESTOWN      CLEAR     58  52  80 CALM      29.98R
MINOT AFB      CLEAR     57  51  81 CALM      29.96S
GARRISON         N/A     59  53  80 E3        29.98S
WILLISTON      CLEAR     67  51  56 E5        29.97S
DICKINSON      PTCLDY    58  50  75 E9        29.98S
HETTINGER      MOCLDY    65  52  62 E9        30.00R
$$

 *****  OTHER AIRPORT OBSERVATIONS IN OUR AREA  *****

CITY           SKY/WX    TMP DP  RH WIND       PRES   REMARKS
WALHALLA       FAIR      54  54 100 MISG      29.95R
GRAFTON AIRPOR FAIR      63  55  77 CALM      29.95R
VALLEY CITY AR FAIR      57  54  88 S3        29.97S
CANDO          FAIR      54  50  87 W6        29.97S
CAVALIER APRT  FAIR      55  52  88 W5        29.94S
GWINNER          N/A     55  52  88 SW5       29.98S
SHEYENNE NWR     N/A     55  51  86 CALM      29.95
ROLLA          FAIR      48  48 100 CALM      29.99S
 ***** THE ABOVE OBSERVATIONS ARE NON NWS ARE NOT QUALITY
       CONTROLLED AND MAY MIS-REPORT RAIN FOR SNOW...
$$

  *****  WEATHER ACROSS NORTHERN MINNESOTA  *****

CITY           SKY/WX    TMP DP  RH WIND       PRES   REMARKS
FLAG ISLAND    CLEAR     61  54  77 W10       29.89S
WARROAD        CLEAR     57  54  88 W3        29.92S
ROSEAU         CLEAR     55  52  88 NW3       29.93R
HALLOCK        CLEAR     55  52  88 CALM      29.93R
THF RVR FALLS  CLEAR     54  48  82 CALM      29.94R
BAUDETTE       CLEAR     56  51  84 W7        29.90S
WASKISH        CLEAR     63  54  72 NW6       29.91S
CROOKSTON      CLEAR     59  54  82 CALM      29.95R
STEPHEN NDAWN    N/A     55  54  94 SW3         N/A
GREENBUSH NDAW   N/A     52  50  93 SW1         N/A
$$
  *****  WEATHER ACROSS CENTRAL AND WEST MINNESOTA  *****

CITY           SKY/WX    TMP DP  RH WIND       PRES   REMARKS
FOSSTON        CLEAR     48  45  87 CALM      29.96R
BEMIDJI        CLEAR     56  46  69 W6        29.94R
PARK RAPIDS    CLEAR     55  48  77 CALM      29.95R
ELBOW LAKE     FAIR      60  55  81 CALM      29.97S
WADENA         CLEAR     54  48  82 CALM      29.97R
DETROIT LAKES  CLEAR     59  52  77 CALM      29.98R
MOORHEAD       CLEAR     55  50  82 S3        29.96S
FERGUS FALLS   CLEAR     57  52  82 CALM      29.97R
MORRIS MN      CLEAR     55  52  88 CALM      29.97S
STAPLES        CLEAR     54  48  82 CALM      29.97R
$$
  *****  WEATHER ELSEWHERE ACROSS MINNESOTA  *****

CITY           SKY/WX    TMP DP  RH WIND       PRES   REMARKS
DULUTH         PTCLDY    55  50  83 W7        29.90S
INTRNTL FALLS  MOCLDY    49  48  97 CALM      29.89R
ELY            MOCLDY    55  52  88 W5        29.89R
CLOQUET        PTCLDY    54  48  82 W5        29.92S
WHEATON        CLEAR     55  48  76 CALM      29.99R
BRAINERD       CLEAR     53  50  89 CALM      29.95R
HIBBING        CLEAR     47  45  93 CALM      29.91R
ALEXANDRIA     CLEAR     58  52  80 CALM      29.99S
SAINT CLOUD    CLEAR     59  52  77 NW3       29.96R
MINNEAPOLIS    PTCLDY    66  53  63 NW7       29.94R
$$

  *****  WEATHER ACROSS SOUTH DAKOTA  *****

CITY           SKY/WX    TMP DP  RH WIND       PRES   REMARKS
SIOUX FALLS    PTCLDY    62  59  90 N3        29.98S
BROOKINGS      CLEAR     63  54  72 E3        30.01S
WATERTOWN      CLEAR     63  52  67 CALM      29.99S
HURON          CLEAR     66  56  70 SE7       29.96S
SISSETON         N/A     55  51  86 W3        29.97R
ABERDEEN       CLEAR     61  53  75 CALM      29.97S
MITCHELL       PTCLDY    65  57  75 E6        29.98R
PIERRE         PTCLDY    67  56  67 E7        29.94F
MOBRIDGE       PTCLDY    69  52  54 E12       29.94S
RAPID CITY     CLOUDY    69  59  70 E6        29.98F
$$

  *****  SOME WEATHER IN NEARBY STATES *****

CITY           SKY/WX    TMP DP  RH WIND       PRES   REMARKS
GLASGOW MT     CLEAR     71  45  39 E14       29.89F
GREAT FALLS MT MOCLDY    77  45  32 W10       29.82R
CHEYENNE WY    CLOUDY    66  50  56 SW21G26   30.16R
SCOTTSBLUFF NE CLOUDY    76  51  41 S7        29.99S
OMAHA NE       CLOUDY    74  64  71 E6        29.97S
DES MOINES IA  PTCLDY    71  58  63 S3        29.97R
DAVENPORT IA   CLEAR     61  57  87 W3        29.96S
CHICAGO IL     PTCLDY    68  56  65 W6        29.91R
EAU CLAIRE WI  MOCLDY    64  53  67 NW6       29.90R
LA CROSSE WI   CLEAR     63  55  75 SE5       29.91S
$$

  *****  SOME NATIONAL WEATHER *****

CITY           SKY/WX    TMP DP  RH WIND       PRES   REMARKS
LA GUARDIA NY  PTCLDY    83  62  49 SW9       29.80S
RALEIGH NC     PTCLDY    79  70  74 SW9       29.97S
ATLANTA GA     MOCLDY    79  66  64 CALM      29.96S
NEW ORLEANS LA PTCLDY    80  72  76 S8        29.93S
OKLAHOMA CITY  MOCLDY    76  67  73 SE7       29.93S
ALBUQUERQUE NM PTCLDY    78  47  33 N3        30.13R
SALT LAKE CITY PTCLDY    65  57  75 S9        30.06S
LOS ANGELES CA PTCLDY    71  64  78 SW3       29.88R
BOISE ID       CLEAR     81  49  32 CALM      29.87R
SEATTLE WA     PTCLDY    66  55  67 W3        29.95R
$$

*** WEATHER ACROSS MANITOBA...SASKATCHEWAN AND ONTARIO ***
                ***ONTARIO***

CITY           SKY/WX    TMP DP  RH WIND       PRES   REMARKS
GERALDTON      CLOUDY    54  50  87 NW6       29.78R
THUNDER BAY    MOCLDY    55  55 100 W3        29.82
SIOUX LOOKOUT  PTCLDY    54  50  87 N3        29.87S
TORONTO        MOCLDY    66  55  68 W8        29.79F
BIG TROUT LK   CLOUDY    52  50  93 N9        29.86R
PICKLE LAKE    NOT AVBL
DRYDEN         MOCLDY    54  50  87 N7G17     29.88S
KENORA         MOCLDY    57  54  88 N5        29.90S
$$
                *** MANITOBA***

CITY           SKY/WX    TMP DP  RH WIND       PRES   REMARKS
BRANDON        CLEAR     52  48  87 NE3       29.98R
DAUPHIN        CLEAR     52  50  93 W3        29.97R
ISLAND LAKE    CLOUDY    54  50  87 N5        29.96R
PILOT MOUND      N/A     50  48  93 SE2         N/A
THE PAS        CLEAR     55  52  88 CALM      29.99R
THOMPSON       LGT RAIN  55  54  94 CALM      29.97S
WINNIPEG       CLEAR     52  50  93 N5        29.95R
LYNN LAKE      CLOUDY    59  52  77 N6        29.99R
CHURCHILL      DRIZZLE   46  46 100 N9        29.95S FOG
GILLAM         CLOUDY    54  48  82 N5        29.95S
$$
                ***SASKATCHEWAN***

CITY           SKY/WX    TMP DP  RH WIND       PRES   REMARKS
ESTEVAN        PTCLDY    57  48  72 E6        29.99R
KINDERSLEY     MOCLDY    66  55  68 E17       29.88R
LLOYDMINSTER   CLOUDY    68  52  56 SE16G23   29.87S
PRINCE ALBERT  PTCLDY    55  54  94 NE3       29.95R
REGINA         CLEAR     63  54  72 E7        29.98R
YORKTON        CLEAR     61  52  72 W2        29.97S
N. BATTLEFORD  MOCLDY    63  54  72 SE10      29.94R
LA RONGE       PTCLDY    63  48  59 E6        29.97R
SASKATOON      PTCLDY    66  55  68 SE12      29.96S
SWIFT CURRENT  CLEAR     63  57  82 SE15G22   29.92S
$$
NOTE: THESE ARE AUTOMATED STATIONS WITH LIMITED QUALITY CONTROL
      "FAIR" INDICATES FEW OR NO CLOUDS BELOW 12,000 FEET WITH NO
      SIGNIFICANT WEATHER AND/OR OBSTRUCTIONS TO VISIBILITY.
      SKY/WX - SKY CONDITION AND SIGNIFICANT WEATHER.
      TMP - AIR TEMPERATURE.    DP   - DEWPOINT TEMPERATURE.
      RH  - RELATIVE HUMIDITY.  PRES - PRESSURE.
      HX  - HEAT INDEX.         WCI  - WIND CHILL INDEX.
$


USA.gov is the U.S. government's official web portal to all federal, state and local government web resources and services.